Year,Month,Day,Hour,Minute,Value (Times are PST for insolation in W/m^2)
2022,01,02,02,19,0.00
2022,01,02,02,20,0.00
2022,01,02,02,21,0.00
2022,01,02,02,22,0.00
2022,01,02,02,23,0.00
2022,01,02,02,24,0.00
2022,01,02,02,25,0.00
2022,01,02,02,26,0.00
2022,01,02,02,27,0.00
2022,01,02,02,28,0.00
2022,01,02,02,29,0.00
2022,01,02,02,30,0.00
2022,01,02,02,31,0.00
2022,01,02,02,32,0.00
2022,01,02,02,33,0.00
2022,01,02,02,34,0.00
2022,01,02,02,35,0.00
2022,01,02,02,36,0.00
2022,01,02,02,37,0.00
2022,01,02,02,38,0.00
2022,01,02,02,39,0.00
2022,01,02,02,40,0.00
2022,01,02,02,41,0.00
2022,01,02,02,42,0.00
2022,01,02,02,43,0.00
2022,01,02,02,44,0.00
2022,01,02,02,45,0.00
2022,01,02,02,46,0.00
2022,01,02,02,47,0.00
2022,01,02,02,48,0.00
2022,01,02,02,49,0.00
2022,01,02,02,50,0.00
2022,01,02,02,51,0.00
2022,01,02,02,52,0.00
2022,01,02,02,53,0.00
2022,01,02,02,54,0.00
2022,01,02,02,55,0.00
2022,01,02,02,56,0.00
2022,01,02,02,57,0.00
2022,01,02,02,58,0.00
2022,01,02,02,59,0.00
2022,01,02,03,00,0.00
2022,01,02,03,01,0.00
2022,01,02,03,02,0.00
2022,01,02,03,03,0.00
2022,01,02,03,04,0.00
2022,01,02,03,05,0.00
2022,01,02,03,06,0.00
2022,01,02,03,07,0.00
2022,01,02,03,08,0.00
2022,01,02,03,09,0.00
2022,01,02,03,10,0.00
2022,01,02,03,11,0.00
2022,01,02,03,12,0.00
2022,01,02,03,13,0.00
2022,01,02,03,14,0.00
2022,01,02,03,15,0.00
2022,01,02,03,16,0.00
2022,01,02,03,17,0.00
2022,01,02,03,18,0.00
2022,01,02,03,19,0.00
2022,01,02,03,20,0.00
2022,01,02,03,21,0.00
2022,01,02,03,22,0.00
2022,01,02,03,23,0.00
2022,01,02,03,24,0.00
2022,01,02,03,25,0.00
2022,01,02,03,26,0.00
2022,01,02,03,27,0.00
2022,01,02,03,28,0.00
2022,01,02,03,29,0.00
2022,01,02,03,30,0.00
2022,01,02,03,31,0.00
2022,01,02,03,32,0.00
2022,01,02,03,33,0.00
2022,01,02,03,34,0.00
2022,01,02,03,35,0.00
2022,01,02,03,36,0.00
2022,01,02,03,37,0.00
2022,01,02,03,38,0.00
2022,01,02,03,39,0.00
2022,01,02,03,40,0.00
2022,01,02,03,41,0.00
2022,01,02,03,42,0.00
2022,01,02,03,43,0.00
2022,01,02,03,44,0.00
2022,01,02,03,45,0.00
2022,01,02,03,46,0.00
2022,01,02,03,47,0.00
2022,01,02,03,48,0.00
2022,01,02,03,49,0.00
2022,01,02,03,50,0.00
2022,01,02,03,51,0.00
2022,01,02,03,52,0.00
2022,01,02,03,53,0.00
2022,01,02,03,54,0.00
2022,01,02,03,55,0.00
2022,01,02,03,56,0.00
2022,01,02,03,57,0.00
2022,01,02,03,58,0.00
2022,01,02,03,59,0.00
2022,01,02,04,00,0.00
2022,01,02,04,01,0.00
2022,01,02,04,02,0.00
2022,01,02,04,03,0.00
2022,01,02,04,04,0.00
2022,01,02,04,05,0.00
2022,01,02,04,06,0.00
2022,01,02,04,07,0.00
2022,01,02,04,08,0.00
2022,01,02,04,09,0.00
2022,01,02,04,10,0.00
2022,01,02,04,11,0.00
2022,01,02,04,12,0.00
2022,01,02,04,13,0.00
2022,01,02,04,14,0.00
2022,01,02,04,15,0.00
2022,01,02,04,16,0.00
2022,01,02,04,17,0.00
2022,01,02,04,18,0.00
2022,01,02,04,19,0.00
2022,01,02,04,20,0.00
2022,01,02,04,21,0.00
2022,01,02,04,22,0.00
2022,01,02,04,23,0.00
2022,01,02,04,24,0.00
2022,01,02,04,25,0.00
2022,01,02,04,26,0.00
2022,01,02,04,27,0.00
2022,01,02,04,28,0.00
2022,01,02,04,29,0.00
2022,01,02,04,30,0.00
2022,01,02,04,31,0.00
2022,01,02,04,32,0.00
2022,01,02,04,33,0.00
2022,01,02,04,34,0.00
2022,01,02,04,35,0.00
2022,01,02,04,36,0.00
2022,01,02,04,37,0.00
2022,01,02,04,38,0.00
2022,01,02,04,39,0.00
2022,01,02,04,40,0.00
2022,01,02,04,41,0.00
2022,01,02,04,42,0.00
2022,01,02,04,43,0.00
2022,01,02,04,44,0.00
2022,01,02,04,45,0.00
2022,01,02,04,46,0.00
2022,01,02,04,47,0.00
2022,01,02,04,48,0.00
2022,01,02,04,49,0.00
2022,01,02,04,50,0.00
2022,01,02,04,51,0.00
2022,01,02,04,52,0.00
2022,01,02,04,53,0.00
2022,01,02,04,54,0.00
2022,01,02,04,55,0.00
2022,01,02,04,56,0.00
2022,01,02,04,57,0.00
2022,01,02,04,58,0.00
2022,01,02,04,59,0.00
2022,01,02,05,00,0.00
2022,01,02,05,01,0.00
2022,01,02,05,02,0.00
2022,01,02,05,03,0.00
2022,01,02,05,04,0.00
2022,01,02,05,05,0.00
2022,01,02,05,06,0.00
2022,01,02,05,07,0.00
2022,01,02,05,08,0.00
2022,01,02,05,09,0.00
2022,01,02,05,10,0.00
2022,01,02,05,11,0.00
2022,01,02,05,12,0.00
2022,01,02,05,13,0.00
2022,01,02,05,14,0.00
2022,01,02,05,15,0.00
2022,01,02,05,16,0.00
2022,01,02,05,17,0.00
2022,01,02,05,18,0.00
2022,01,02,05,19,0.00
2022,01,02,05,20,0.00
2022,01,02,05,21,0.00
2022,01,02,05,22,0.00
2022,01,02,05,23,0.00
2022,01,02,05,24,0.00
2022,01,02,05,25,0.00
2022,01,02,05,26,0.00
2022,01,02,05,27,0.00
2022,01,02,05,28,0.00
2022,01,02,05,29,0.00
2022,01,02,05,30,0.00
2022,01,02,05,31,0.00
2022,01,02,05,32,0.00
2022,01,02,05,33,0.00
2022,01,02,05,34,0.00
2022,01,02,05,35,0.00
2022,01,02,05,36,0.00
2022,01,02,05,37,0.00
2022,01,02,05,38,0.00
2022,01,02,05,39,0.00
2022,01,02,05,40,0.00
2022,01,02,05,41,0.00
2022,01,02,05,42,0.00
2022,01,02,05,43,0.00
2022,01,02,05,44,0.00
2022,01,02,05,45,0.00
2022,01,02,05,46,0.00
2022,01,02,05,47,0.00
2022,01,02,05,48,0.00
2022,01,02,05,49,0.00
2022,01,02,05,50,0.00
2022,01,02,05,51,0.00
2022,01,02,05,52,0.00
2022,01,02,05,53,0.00
2022,01,02,05,54,0.00
2022,01,02,05,55,0.00
2022,01,02,05,56,0.00
2022,01,02,05,57,0.00
2022,01,02,05,58,0.00
2022,01,02,05,59,0.00
2022,01,02,06,00,0.00
2022,01,02,06,01,0.00
2022,01,02,06,02,0.00
2022,01,02,06,03,0.00
2022,01,02,06,04,0.00
2022,01,02,06,05,0.00
2022,01,02,06,06,0.00
2022,01,02,06,07,0.00
2022,01,02,06,08,0.00
2022,01,02,06,09,0.00
2022,01,02,06,10,0.00
2022,01,02,06,11,0.00
2022,01,02,06,12,0.00
2022,01,02,06,13,0.00
2022,01,02,06,14,0.00
2022,01,02,06,15,0.00
2022,01,02,06,16,0.00
2022,01,02,06,17,0.00
2022,01,02,06,18,0.00
2022,01,02,06,19,0.00
2022,01,02,06,20,0.00
2022,01,02,06,21,0.00
2022,01,02,06,22,0.00
2022,01,02,06,23,0.00
2022,01,02,06,24,0.00
2022,01,02,06,25,0.00
2022,01,02,06,26,0.00
2022,01,02,06,27,0.00
2022,01,02,06,28,0.00
2022,01,02,06,29,0.00
2022,01,02,06,30,0.00
2022,01,02,06,31,0.00
2022,01,02,06,32,0.00
2022,01,02,06,33,0.00
2022,01,02,06,34,0.00
2022,01,02,06,35,0.00
2022,01,02,06,36,0.00
2022,01,02,06,37,0.00
2022,01,02,06,38,0.00
2022,01,02,06,39,0.00
2022,01,02,06,40,0.00
2022,01,02,06,41,0.00
2022,01,02,06,42,0.00
2022,01,02,06,43,0.00
2022,01,02,06,44,0.00
2022,01,02,06,45,0.00
2022,01,02,06,46,0.00
2022,01,02,06,47,0.00
2022,01,02,06,48,0.00
2022,01,02,06,49,0.00
2022,01,02,06,50,0.00
2022,01,02,06,51,0.00
2022,01,02,06,52,0.00
2022,01,02,06,53,0.00
2022,01,02,06,54,0.00
2022,01,02,06,55,0.00
2022,01,02,06,56,0.00
2022,01,02,06,57,0.00
2022,01,02,06,58,0.00
2022,01,02,06,59,0.00
2022,01,02,07,00,0.00
2022,01,02,07,01,0.00
2022,01,02,07,02,0.00
2022,01,02,07,03,0.00
2022,01,02,07,04,0.00
2022,01,02,07,05,0.00
2022,01,02,07,06,0.00
2022,01,02,07,07,0.00
2022,01,02,07,08,0.00
2022,01,02,07,09,0.00
2022,01,02,07,10,0.00
2022,01,02,07,11,0.00
2022,01,02,07,12,0.00
2022,01,02,07,13,0.00
2022,01,02,07,14,0.00
2022,01,02,07,15,0.00
2022,01,02,07,16,0.00
2022,01,02,07,17,0.00
2022,01,02,07,18,0.00
2022,01,02,07,19,0.00
2022,01,02,07,20,0.00
2022,01,02,07,21,0.00
2022,01,02,07,22,0.00
2022,01,02,07,23,0.00
2022,01,02,07,24,0.00
2022,01,02,07,25,0.00
2022,01,02,07,26,0.00
2022,01,02,07,27,0.00
2022,01,02,07,28,0.00
2022,01,02,07,29,0.00
2022,01,02,07,30,0.00
2022,01,02,07,31,0.00
2022,01,02,07,32,0.00
2022,01,02,07,33,0.00
2022,01,02,07,34,0.00
2022,01,02,07,35,0.00
2022,01,02,07,36,0.00
2022,01,02,07,37,0.00
2022,01,02,07,38,0.00
2022,01,02,07,39,0.00
2022,01,02,07,40,0.00
2022,01,02,07,41,0.00
2022,01,02,07,42,0.00
2022,01,02,07,43,0.00
2022,01,02,07,44,0.00
2022,01,02,07,45,0.00
2022,01,02,07,46,0.00
2022,01,02,07,47,0.00
2022,01,02,07,48,0.00
2022,01,02,07,49,0.00
2022,01,02,07,50,0.00
2022,01,02,07,51,0.00
2022,01,02,07,52,0.00
2022,01,02,07,53,0.00
2022,01,02,07,54,0.00
2022,01,02,07,55,0.00
2022,01,02,07,56,0.00
2022,01,02,07,57,0.00
2022,01,02,07,58,0.00
2022,01,02,07,59,0.00
2022,01,02,08,00,0.00
2022,01,02,08,01,0.00
2022,01,02,08,02,0.00
2022,01,02,08,03,0.00
2022,01,02,08,04,0.00
2022,01,02,08,05,0.00
2022,01,02,08,06,0.00
2022,01,02,08,07,0.00
2022,01,02,08,08,0.00
2022,01,02,08,09,0.00
2022,01,02,08,10,0.00
2022,01,02,08,11,0.00
2022,01,02,08,12,0.00
2022,01,02,08,13,0.00
2022,01,02,08,14,0.00
2022,01,02,08,15,0.00
2022,01,02,08,16,0.00
2022,01,02,08,17,0.00
2022,01,02,08,18,0.00
2022,01,02,08,19,0.00
2022,01,02,08,20,0.00
2022,01,02,08,21,0.00
2022,01,02,08,22,0.00
2022,01,02,08,23,0.00
2022,01,02,08,24,0.00
2022,01,02,08,25,0.00
2022,01,02,08,26,0.00
2022,01,02,08,27,0.00
2022,01,02,08,28,0.00
2022,01,02,08,29,0.00
2022,01,02,08,30,0.00
2022,01,02,08,31,0.00
2022,01,02,08,32,0.00
2022,01,02,08,33,0.00
2022,01,02,08,34,0.00
2022,01,02,08,35,0.00
2022,01,02,08,36,0.00
2022,01,02,08,37,0.00
2022,01,02,08,38,0.00
2022,01,02,08,39,0.00
2022,01,02,08,40,0.00
2022,01,02,08,41,0.00
2022,01,02,08,42,0.00
2022,01,02,08,43,0.00
2022,01,02,08,44,0.00
2022,01,02,08,45,0.00
2022,01,02,08,46,0.00
2022,01,02,08,47,0.00
2022,01,02,08,48,0.00
2022,01,02,08,49,0.00
2022,01,02,08,50,0.00
2022,01,02,08,51,0.00
2022,01,02,08,52,0.00
2022,01,02,08,53,0.00
2022,01,02,08,54,0.00
2022,01,02,08,55,0.00
2022,01,02,08,56,0.00
2022,01,02,08,57,0.00
2022,01,02,08,58,0.00
2022,01,02,08,59,0.00
2022,01,02,09,00,0.00
2022,01,02,09,01,0.00
2022,01,02,09,02,0.00
2022,01,02,09,03,0.00
2022,01,02,09,04,0.00
2022,01,02,09,05,0.00
2022,01,02,09,06,0.00
2022,01,02,09,07,0.00
2022,01,02,09,08,0.00
2022,01,02,09,09,0.00
2022,01,02,09,10,0.00
2022,01,02,09,11,0.00
2022,01,02,09,12,0.00
2022,01,02,09,13,0.00
2022,01,02,09,14,0.00
2022,01,02,09,15,0.00
2022,01,02,09,16,0.00
2022,01,02,09,17,0.00
2022,01,02,09,18,0.00
2022,01,02,09,19,0.00
2022,01,02,09,20,0.00
2022,01,02,09,21,0.00
2022,01,02,09,22,0.00
2022,01,02,09,23,0.00
2022,01,02,09,24,0.00
2022,01,02,09,25,0.00
2022,01,02,09,26,0.00
2022,01,02,09,27,0.00
2022,01,02,09,28,0.00
2022,01,02,09,29,0.00
2022,01,02,09,30,0.00
2022,01,02,09,31,0.00
2022,01,02,09,32,0.00
2022,01,02,09,33,0.00
2022,01,02,09,34,0.00
2022,01,02,09,35,0.00
2022,01,02,09,36,0.00
2022,01,02,09,37,0.00
2022,01,02,09,38,0.00
2022,01,02,09,39,0.00
2022,01,02,09,40,0.00
2022,01,02,09,41,0.00
2022,01,02,09,42,0.20
2022,01,02,09,43,5.00
2022,01,02,09,44,5.00
2022,01,02,09,45,5.00
2022,01,02,09,46,5.00
2022,01,02,09,47,5.00
2022,01,02,09,48,5.00
2022,01,02,09,49,5.00
2022,01,02,09,50,5.00
2022,01,02,09,51,5.10
2022,01,02,09,52,7.00
2022,01,02,09,53,7.00
2022,01,02,09,54,7.00
2022,01,02,09,55,7.00
2022,01,02,09,56,7.00
2022,01,02,09,57,7.00
2022,01,02,09,58,8.60
2022,01,02,09,59,9.00
2022,01,02,13,27,16.00
2022,01,02,13,28,16.90
2022,01,02,13,29,19.00
2022,01,02,13,30,17.50
2022,01,02,13,31,17.20
2022,01,02,13,32,15.20
2022,01,02,13,33,12.40
2022,01,02,13,34,22.20
2022,01,02,13,35,30.90
2022,01,02,13,36,39.20
2022,01,02,13,37,37.60
2022,01,02,13,38,33.30
2022,01,02,13,39,34.00
2022,01,02,13,40,31.00
2022,01,02,13,41,23.20
2022,01,02,13,42,13.40
2022,01,02,13,43,9.00
2022,01,02,13,44,9.00
2022,01,02,13,45,9.50
2022,01,02,13,46,9.40
2022,01,02,13,47,7.00
2022,01,02,13,48,7.00
2022,01,02,13,49,5.60
2022,01,02,13,50,6.60
2022,01,02,13,51,8.90
2022,01,02,13,52,9.00
2022,01,02,13,53,8.60
2022,01,02,13,54,7.00
2022,01,02,13,55,6.10
2022,01,02,13,56,5.00
2022,01,02,13,57,5.00
2022,01,02,13,58,5.00
2022,01,02,13,59,1.00
2022,01,02,14,00,0.00
2022,01,02,14,01,0.00
2022,01,02,14,02,1.20
2022,01,02,14,03,5.00
2022,01,02,14,04,5.00
2022,01,02,14,05,6.10
2022,01,02,14,06,7.00
2022,01,02,14,07,7.00
2022,01,02,14,08,5.30
2022,01,02,14,09,4.50
2022,01,02,14,10,0.80
2022,01,02,14,11,5.00
2022,01,02,14,12,5.00
2022,01,02,14,13,5.00
2022,01,02,14,14,5.00
2022,01,02,14,15,1.50
2022,01,02,14,16,0.00
2022,01,02,14,17,0.00
2022,01,02,14,18,0.00
2022,01,02,14,19,0.00
2022,01,02,14,20,0.00
2022,01,02,14,21,0.00
2022,01,02,14,22,0.00
